When you browse on this site, cookies collect data to enhance your experience and personalize the content and advertising you see.
Visit our Privacy Policy to learn more. By continuing to use the site, you agree to this use of cookies and data.
  • In Romania
  • List of Countries
  • For 7 days
  • Water Temperature
  • Satellite Maps
  • Weather Map
  • Weather Widgets
  • user-avatar
    Login

    Hourly Weather Santa Cruz

    Today, 19 March, Tuesday

    Time Temperature Precipitation Wind Pressure Humidity
    00:00 +25°C° 0.1 mm 2 mps 721 mmHg 93%
    01:00 +25°C° 0.1 mm 2 mps 721 mmHg 94%
    02:00 +25°C° 0 mm 2 mps 721 mmHg 95%
    03:00 +25°C° 0 mm 2 mps 721 mmHg 95%
    04:00 +24°C° 0 mm 2 mps 721 mmHg 95%
    05:00 +24°C° 0 mm 3 mps 720 mmHg 96%
    06:00 +25°C° 0 mm 3 mps 721 mmHg 92%
    07:00 +26°C° 0 mm 3 mps 721 mmHg 89%
    08:00 +26°C° 0 mm 4 mps 722 mmHg 86%
    09:00 +28°C° 0 mm 4 mps 722 mmHg 80%
    10:00 +29°C° 0 mm 5 mps 722 mmHg 73%
    11:00 +30°C° 0 mm 5 mps 722 mmHg 67%
    12:00 +33°C° 0 mm 6 mps 721 mmHg 62%
    13:00 +34°C° 0 mm 6 mps 720 mmHg 57%
    14:00 +35°C° 0 mm 6 mps 719 mmHg 52%
    15:00 +34°C° 0 mm 6 mps 719 mmHg 56%
    16:00 +33°C° 0 mm 5 mps 718 mmHg 60%
    17:00 +32°C° 0 mm 5 mps 718 mmHg 64%
    18:00 +30°C° 0 mm 4 mps 718 mmHg 68%
    19:00 +29°C° 0 mm 4 mps 719 mmHg 72%
    20:00 +28°C° 0 mm 3 mps 719 mmHg 77%
    21:00 +28°C° 0 mm 3 mps 720 mmHg 78%
    22:00 +27°C° 0 mm 2 mps 721 mmHg 80%
    23:00 +27°C° 0 mm 2 mps 721 mmHg 81%

    Tomorrow, 20 March, Wednesday

    Time Temperature Precipitation Wind Pressure Humidity
    00:00 +26°C° 0.1 mm 2 mps 721 mmHg 83%
    01:00 +26°C° 0.1 mm 2 mps 721 mmHg 86%
    02:00 +26°C° 0.1 mm 2 mps 721 mmHg 88%
    03:00 +25°C° 0 mm 2 mps 721 mmHg 89%
    04:00 +25°C° 0 mm 1 mps 721 mmHg 91%
    05:00 +24°C° 0 mm 1 mps 721 mmHg 92%
    06:00 +25°C° 0.1 mm 2 mps 722 mmHg 88%
    07:00 +26°C° 0.1 mm 2 mps 722 mmHg 85%
    08:00 +27°C° 0.1 mm 2 mps 723 mmHg 81%
    09:00 +28°C° 0.5 mm 3 mps 724 mmHg 77%
    10:00 +29°C° 0.5 mm 3 mps 724 mmHg 73%
    11:00 +32°C° 0.5 mm 4 mps 725 mmHg 69%
    12:00 +30°C° 0.8 mm 5 mps 724 mmHg 65%
    13:00 +30°C° 0.8 mm 6 mps 724 mmHg 61%
    14:00 +30°C° 0.8 mm 7 mps 723 mmHg 58%
    15:00 +29°C° 0 mm 7 mps 723 mmHg 60%
    16:00 +28°C° 0 mm 6 mps 723 mmHg 62%
    17:00 +27°C° 0 mm 6 mps 723 mmHg 64%
    18:00 +26°C° 0 mm 5 mps 723 mmHg 67%
    19:00 +25°C° 0 mm 5 mps 724 mmHg 69%
    20:00 +25°C° 0 mm 5 mps 724 mmHg 71%
    21:00 +23°C° 0 mm 5 mps 725 mmHg 72%
    22:00 +23°C° 0 mm 4 mps 725 mmHg 73%
    23:00 +23°C° 0 mm 4 mps 725 mmHg 75%

    Day after tomorrow, 21 March, Thursday

    Time Temperature Precipitation Wind Pressure Humidity
    00:00 +23°C° 0 mm 4 mps 725 mmHg 75%
    01:00 +23°C° 0 mm 4 mps 725 mmHg 74%
    02:00 +22°C° 0 mm 4 mps 724 mmHg 74%
    03:00 +22°C° 0 mm 4 mps 724 mmHg 75%
    04:00 +22°C° 0 mm 4 mps 724 mmHg 76%
    05:00 +21°C° 0 mm 5 mps 724 mmHg 77%
    06:00 +22°C° 0.1 mm 5 mps 725 mmHg 77%
    07:00 +22°C° 0.1 mm 5 mps 725 mmHg 76%
    08:00 +22°C° 0.1 mm 5 mps 726 mmHg 75%
    09:00 +23°C° 0 mm 5 mps 726 mmHg 72%
    10:00 +25°C° 0 mm 5 mps 726 mmHg 69%
    11:00 +26°C° 0 mm 4 mps 726 mmHg 66%
    12:00 +26°C° 0.1 mm 4 mps 725 mmHg 64%
    13:00 +27°C° 0.1 mm 4 mps 724 mmHg 61%
    14:00 +28°C° 0.1 mm 3 mps 723 mmHg 59%
    15:00 +28°C° 0 mm 3 mps 723 mmHg 59%
    16:00 +28°C° 0 mm 2 mps 722 mmHg 59%
    17:00 +28°C° 0 mm 2 mps 721 mmHg 59%
    18:00 +27°C° 0 mm 1 mps 722 mmHg 63%
    19:00 +26°C° 0 mm 1 mps 722 mmHg 66%
    20:00 +24°C° 0 mm 1 mps 722 mmHg 70%
    21:00 +24°C° 0 mm 1 mps 723 mmHg 70%
    22:00 +24°C° 0 mm 1 mps 723 mmHg 71%
    23:00 +23°C° 0 mm 2 mps 723 mmHg 71%

    22 March, Friday

    Time Temperature Precipitation Wind Pressure Humidity
    00:00 +23°C° 0 mm 2 mps 723 mmHg 71%
    01:00 +23°C° 0 mm 2 mps 723 mmHg 71%
    02:00 +23°C° 0 mm 2 mps 722 mmHg 71%
    03:00 +23°C° 0 mm 2 mps 722 mmHg 71%
    04:00 +23°C° 0 mm 2 mps 722 mmHg 72%
    05:00 +23°C° 0 mm 2 mps 723 mmHg 73%
    06:00 +23°C° 0 mm 2 mps 723 mmHg 71%
    07:00 +24°C° 0 mm 3 mps 724 mmHg 68%
    08:00 +25°C° 0 mm 3 mps 724 mmHg 66%
    09:00 +27°C° 0 mm 3 mps 724 mmHg 60%
    10:00 +29°C° 0 mm 3 mps 725 mmHg 54%
    11:00 +31°C° 0 mm 2 mps 725 mmHg 47%
    12:00 +31°C° 0 mm 2 mps 724 mmHg 45%
    13:00 +32°C° 0 mm 2 mps 723 mmHg 43%
    14:00 +34°C° 0 mm 2 mps 723 mmHg 41%
    15:00 +32°C° 0 mm 2 mps 723 mmHg 45%
    16:00 +31°C° 0 mm 2 mps 722 mmHg 48%
    17:00 +30°C° 0 mm 2 mps 722 mmHg 51%
    18:00 +29°C° 0 mm 2 mps 722 mmHg 52%
    19:00 +28°C° 0 mm 2 mps 723 mmHg 53%
    20:00 +27°C° 0 mm 2 mps 724 mmHg 54%
    21:00 +27°C° 0 mm 2 mps 724 mmHg 54%
    22:00 +27°C° 0 mm 3 mps 725 mmHg 54%
    23:00 +27°C° 0 mm 3 mps 725 mmHg 55%

    23 March, Saturday

    Time Temperature Precipitation Wind Pressure Humidity
    00:00 +27°C° 0 mm 3 mps 725 mmHg 56%
    01:00 +26°C° 0 mm 3 mps 724 mmHg 58%
    02:00 +26°C° 0 mm 3 mps 724 mmHg 59%
    03:00 +26°C° 0 mm 3 mps 724 mmHg 60%
    04:00 +25°C° 0 mm 3 mps 724 mmHg 61%
    05:00 +25°C° 0 mm 3 mps 724 mmHg 61%
    06:00 +25°C° 0 mm 3 mps 724 mmHg 61%
    07:00 +26°C° 0 mm 3 mps 725 mmHg 60%
    08:00 +26°C° 0 mm 3 mps 725 mmHg 60%
    09:00 +28°C° 0 mm 3 mps 725 mmHg 53%
    10:00 +30°C° 0 mm 3 mps 725 mmHg 47%
    11:00 +31°C° 0 mm 3 mps 725 mmHg 40%
    12:00 +34°C° 0 mm 2 mps 724 mmHg 38%
    13:00 +34°C° 0 mm 1 mps 723 mmHg 36%
    14:00 +35°C° 0 mm 1 mps 722 mmHg 34%
    15:00 +34°C° 0 mm 1 mps 721 mmHg 37%
    16:00 +33°C° 0 mm 1 mps 721 mmHg 40%
    17:00 +32°C° 0 mm 2 mps 720 mmHg 42%
    18:00 +31°C° 0 mm 2 mps 721 mmHg 47%
    19:00 +29°C° 0 mm 2 mps 721 mmHg 51%
    20:00 +27°C° 0 mm 2 mps 722 mmHg 56%
    21:00 +26°C° 0 mm 2 mps 722 mmHg 57%
    22:00 +26°C° 0 mm 2 mps 722 mmHg 59%
    23:00 +26°C° 0 mm 2 mps 723 mmHg 60%

    24 March, Sunday

    Time Temperature Precipitation Wind Pressure Humidity
    00:00 +25°C° 0 mm 1 mps 722 mmHg 61%
    01:00 +25°C° 0 mm 1 mps 722 mmHg 62%
    02:00 +25°C° 0 mm 1 mps 722 mmHg 63%
    03:00 +24°C° 0 mm 1 mps 722 mmHg 65%
    04:00 +24°C° 0 mm 1 mps 722 mmHg 67%
    05:00 +24°C° 0 mm 1 mps 722 mmHg 68%
    06:00 +24°C° 0 mm 1 mps 723 mmHg 67%
    07:00 +25°C° 0 mm 1 mps 723 mmHg 65%
    08:00 +26°C° 0 mm 1 mps 724 mmHg 63%
    09:00 +29°C° 0 mm 1 mps 724 mmHg 56%
    10:00 +31°C° 0 mm 1 mps 724 mmHg 50%
    11:00 +34°C° 0 mm 1 mps 724 mmHg 43%
    12:00 +35°C° 0 mm 1 mps 723 mmHg 42%
    13:00 +35°C° 0 mm 1 mps 722 mmHg 41%
    14:00 +36°C° 0 mm 1 mps 721 mmHg 40%
    15:00 +35°C° 0 mm 1 mps 721 mmHg 42%
    16:00 +34°C° 0 mm 1 mps 721 mmHg 45%
    17:00 +32°C° 0 mm 0 mps 721 mmHg 48%
    18:00 +30°C° 0 mm 0 mps 721 mmHg 52%
    19:00 +28°C° 0 mm 0 mps 722 mmHg 56%
    20:00 +29°C° 0 mm 1 mps 722 mmHg 60%
    21:00 +28°C° 0.2 mm 1 mps 722 mmHg 63%
    22:00 +28°C° 0.2 mm 1 mps 723 mmHg 66%
    23:00 +27°C° 0.2 mm 1 mps 723 mmHg 68%
    Show more